1500793200.58,5578,21.63,74360.0,18.17,-4.73,-5.65,0,*7B
1500793201.79,5579,21.63,74362.5,18.17,-5.23,-6.05,0,*7B
1500793203.03,5580,21.63,74358.0,18.17,-4.69,-5.61,0,*73
1500793204.25,5581,21.63,74362.0,18.17,-5.19,-6.13,0,*72
1500793205.47,5582,21.63,74362.8,18.17,-5.65,-6.43,0,*7F
1500793206.66,5583,21.63,74360.5,18.13,-5.43,-6.31,0,*7B
1500793207.87,5584,21.63,74358.5,18.13,-5.11,-6.01,0,*78
1500793209.08,5585,21.63,74362.3,18.13,-4.99,-5.69,0,*75
1500793210.32,5586,21.63,74364.5,18.13,-5.03,-5.81,0,*72
1500793211.52,5587,21.63,74360.5,18.13,-5.55,-6.31,0,*78
1500793212.73,5588,21.63,74358.5,18.17,-4.73,-5.47,0,*74
1500793213.93,5589,21.63,74358.8,18.17,-4.57,-5.35,0,*76
1500793215.15,5590,21.63,74358.8,18.17,-4.49,-5.19,0,*7F
1500793216.36,5591,21.63,74360.8,18.17,-4.37,-5.11,0,*7F
1500793217.61,5592,21.63,74362.5,18.19,-4.29,-5.03,0,*7E
1500793218.83,5593,21.63,74360.0,18.21,-4.25,-5.03,0,*78
1500793220.05,5594,21.63,74360.8,18.21,-4.41,-5.31,0,*7C
1500793221.28,5595,21.63,74360.8,18.21,-4.77,-5.69,0,*75
1500793222.55,5596,21.63,74360.0,18.19,-5.03,-5.93,0,*7A
1500793223.78,5597,21.63,74360.8,18.21,-4.81,-5.81,0,*78
1500793224.99,5598,21.63,74358.3,18.21,-5.73,-6.81,0,*78
1500793226.23,5599,21.63,74362.3,18.23,-6.19,-7.15,0,*78
1500793227.43,5600,21.63,74360.3,18.21,-7.19,-8.37,0,*77
1500793228.64,5601,21.63,74360.8,18.19,-7.15,-8.25,0,*72
1500793229.86,5602,21.63,74360.8,18.13,-6.59,-7.65,0,*79
1500793231.08,5603,21.63,74360.8,18.13,-6.31,-7.35,0,*73
1500793232.32,5604,21.63,74358.3,18.11,-5.65,-6.59,0,*7F
1500793233.53,5605,21.63,74360.8,18.13,-5.77,-6.85,0,*7E
1500793234.77,5606,21.63,74362.5,18.13,-5.89,-6.97,0,*7F
1500793236.01,5607,21.63,74358.5,18.11,-5.81,-6.85,0,*77
1500793237.2,5608,21.63,74362.8,18.13,-6.43,-7.49,0,*76
1500793238.44,5609,21.63,74362.3,18.11,-6.47,-7.39,0,*76
1500793239.66,5610,21.63,74360.3,18.09,-6.23,-7.19,0,*77
1500793240.87,5611,21.63,74360.0,18.09,-6.05,-6.93,0,*71
1500793242.1,5612,21.63,74362.0,18.09,-5.85,-6.77,0,*73
1500793243.31,5613,21.63,74358.8,18.09,-5.61,-6.35,0,*7E
1500793244.51,5614,21.63,74362.8,18.09,-4.65,-5.47,0,*7A
1500793245.75,5615,21.63,74362.3,18.11,-4.53,-5.19,0,*7C
1500793246.96,5616,21.63,74360.8,18.09,-5.31,-6.05,0,*7D
1500793248.16,5617,21.63,74360.3,18.09,-6.31,-6.85,0,*77
1500793249.39,5618,21.63,74360.8,18.09,-5.03,-5.55,0,*74
1500793250.64,5619,21.63,74362.5,18.11,-4.77,-5.15,0,*7A
1500793251.91,5620,21.63,74362.8,18.11,-5.65,-5.93,0,*7C
1500793253.12,5621,21.63,74358.3,18.09,-5.35,-5.73,0,*7F
1500793254.39,5622,21.63,74360.3,18.11,-5.31,-5.69,0,*7A
1500793255.63,5623,21.63,74360.8,18.11,-5.23,-5.39,0,*7D
1500793256.89,5624,21.63,74360.8,18.11,-4.73,-4.77,0,*75
1500793258.09,5625,21.63,74362.0,18.09,-4.65,-4.57,0,*78
1500793259.28,5626,21.63,74360.5,18.13,-4.61,-4.53,0,*70
1500793260.48,5627,21.63,74360.5,18.13,-5.55,-5.39,0,*7A
1500793261.72,5628,21.63,74366.5,18.13,-5.03,-4.89,0,*7C
1500793262.96,5629,21.63,74360.8,18.13,-5.11,-5.11,0,*7E
1500793264.18,5630,21.63,74360.0,18.13,-6.09,-6.23,0,*7E
1500793265.39,5631,21.63,74362.5,18.11,-6.01,-6.31,0,*76
1500793266.63,5632,21.63,74362.5,18.09,-5.73,-6.23,0,*79
1500793267.84,5633,21.63,74358.3,18.09,-4.69,-5.43,0,*77
1500793269.11,5634,21.63,74360.5,18.11,-5.03,-5.69,0,*7C
1500793270.32,5635,21.63,74358.3,18.09,-4.37,-5.19,0,*75
1500793271.57,5636,21.63,74360.5,18.11,-4.21,-5.15,0,*74
1500793272.82,5637,21.63,74362.8,18.09,-5.69,-6.63,0,*73
1500793274.03,5638,21.63,74360.0,18.09,-5.61,-6.85,0,*7C
1500793275.23,5639,21.63,74358.0,18.09,-5.55,-6.77,0,*77
1500793276.46,5640,21.63,74358.5,18.11,-4.33,-5.55,0,*72
1500793277.66,5641,21.63,74358.3,18.09,-4.69,-6.05,0,*73
1500793278.88,5642,21.63,74360.0,18.09,-4.41,-5.85,0,*71
1500793280.09,5643,21.63,74360.8,18.09,-4.37,-5.73,0,*78
1500793281.34,5644,21.63,74356.5,18.11,-4.25,-5.69,0,*7E
1500793282.52,5645,21.63,74360.0,18.09,-4.53,-5.97,0,*76
1500793283.77,5646,21.63,74360.5,18.11,-4.21,-5.69,0,*78
1500793284.97,5647,21.63,74360.0,18.09,-4.25,-5.55,0,*7B
1500793286.2,5648,21.63,74358.3,18.11,-4.99,-6.23,0,*78
1500793287.4,5649,21.63,74356.0,18.09,-4.29,-5.55,0,*79
1500793288.68,5650,21.63,74362.3,18.11,-3.63,-5.03,0,*72
1500793289.92,5651,21.63,74360.8,18.13,-3.43,-4.77,0,*71
1500793291.17,5652,21.63,74356.8,18.13,-4.01,-5.19,0,*7A
1500793292.39,5653,21.63,74362.5,18.17,-4.29,-5.61,0,*7A
1500793293.62,5654,21.63,74362.0,18.17,-4.33,-5.61,0,*76
1500793294.84,5655,21.63,74360.3,18.19,-4.25,-5.43,0,*7E
1500793296.08,5656,21.63,74360.5,18.19,-4.17,-5.31,0,*79
1500793297.36,5657,21.63,74360.0,18.19,-4.01,-5.03,0,*7E
1500793298.6,5658,21.63,74358.3,18.21,-3.51,-4.69,0,*75
1500793299.84,5659,21.63,74362.3,18.23,-3.43,-4.49,0,*77
1500793301.08,5660,21.63,74360.5,18.23,-3.51,-4.53,0,*75
1500793302.33,5661,21.63,74362.3,18.25,-3.59,-4.69,0,*73
1500793303.56,5662,21.63,74358.8,18.25,-4.21,-5.23,0,*77
1500793304.76,5663,21.63,74362.8,18.25,-4.25,-5.35,0,*75
1500793305.96,5664,21.63,74360.0,18.25,-3.39,-4.37,0,*7B
1500793307.15,5665,21.63,74362.3,18.29,-3.35,-4.29,0,*75
1500793308.37,5666,21.63,74360.8,18.29,-3.63,-4.53,0,*78
1500793309.61,5667,21.63,74362.5,18.31,-4.29,-5.27,0,*7B
1500793310.85,5668,21.63,74362.5,18.31,-3.83,-4.77,0,*77
1500793312.09,5669,21.63,74358.3,18.31,-3.63,-4.65,0,*7B
1500793313.33,5670,21.63,74358.8,18.35,-4.09,-5.23,0,*7F
1500793314.53,5671,21.63,74362.8,18.33,-3.39,-4.53,0,*7A
1500793315.77,5672,21.63,74358.3,18.35,-3.91,-5.15,0,*7E
1500793317.03,5673,21.63,74356.5,18.35,-3.55,-4.69,0,*7D
1500793318.24,5674,21.63,74362.3,18.35,-3.07,-4.33,0,*72
1500793319.48,5675,21.63,74360.8,18.37,-3.87,-5.11,0,*78
1500793320.69,5676,21.63,74362.0,18.37,-2.91,-4.17,0,*7A
1500793321.91,5677,21.63,74360.0,18.41,-3.27,-4.61,0,*77
1500793323.18,5678,21.63,74362.8,18.41,-4.01,-5.31,0,*7F
1500793324.42,5679,21.63,74358.0,18.41,-4.49,-5.73,0,*74
1500793325.63,5680,21.63,74362.5,18.41,-4.13,-5.39,0,*73
1500793326.85,5681,21.63,74360.0,18.41,-2.99,-4.13,0,*7F
1500793328.07,5682,21.63,74362.8,18.43,-2.59,-3.71,0,*71
1500793329.29,5683,21.63,74358.5,18.47,-2.51,-3.55,0,*7A
1500793330.47,5684,21.63,74360.3,18.47,-3.07,-4.09,0,*71
1500793331.68,5685,21.63,74358.5,18.49,-2.27,-3.27,0,*76
1500793332.89,5686,21.63,74360.8,18.49,-2.27,-3.39,0,*7A
1500793334.06,5687,21.63,74360.0,18.51,-2.23,-3.15,0,*78
1500793335.27,5688,21.63,74360.5,18.55,-2.07,-3.07,0,*76
1500793336.5,5689,21.63,74362.3,18.55,-2.55,-3.47,0,*74
1500793337.71,5690,21.63,74362.5,18.57,-3.07,-3.95,0,*77
1500793338.89,5691,21.63,74360.5,18.59,-3.35,-4.17,0,*74
1500793340.08,5692,21.63,74360.0,18.59,-3.39,-4.25,0,*7A
1500793341.3,5693,21.63,74362.5,18.59,-3.71,-4.61,0,*77
1500793342.48,5694,21.63,74360.0,18.59,-3.03,-3.87,0,*7A
1500793343.65,5695,21.63,74358.8,18.63,-2.31,-3.23,0,*7C
1500793344.89,5696,21.63,74360.0,18.65,-2.03,-2.91,0,*70
1500793346.1,5697,21.63,74360.5,18.67,-1.99,-2.87,0,*74
1500793347.28,5698,21.63,74362.0,18.69,-2.43,-3.31,0,*7D
1500793348.52,5699,21.63,74358.8,18.71,-2.47,-3.39,0,*79
1500793349.71,5700,21.63,74360.0,18.69,-2.43,-3.27,0,*7A
1500793350.92,5701,21.63,74360.5,18.71,-2.35,-3.35,0,*70
1500793352.14,5702,21.63,74360.3,18.73,-2.07,-2.95,0,*7B
1500793353.33,5703,21.63,74362.0,18.73,-2.83,-3.75,0,*79
1500793354.54,5704,21.63,74362.0,18.75,-2.99,-3.87,0,*7E
1500793355.78,5705,21.63,74360.8,18.75,-2.07,-2.91,0,*7E
1500793356.99,5706,21.63,74360.5,18.77,-1.87,-2.79,0,*72
1500793358.25,5707,21.63,74362.3,18.79,-2.47,-3.51,0,*79
1500793359.49,5708,21.63,74362.0,18.81,-2.47,-3.47,0,*76
1500793360.68,5709,21.63,74358.8,18.81,-1.71,-2.79,0,*7D
1500793361.89,5710,21.63,74362.5,18.85,-2.07,-3.19,0,*74
1500793363.11,5711,21.63,74362.8,18.85,-2.43,-3.59,0,*71
1500793364.34,5712,21.63,74362.8,18.87,-2.43,-3.55,0,*7C
1500793365.52,5713,21.63,74362.3,18.89,-2.79,-3.95,0,*76
1500793366.72,5714,21.63,74360.3,18.89,-2.91,-4.21,0,*7F
1500793367.95,5715,21.63,74358.3,18.91,-2.67,-3.91,0,*72
1500793369.19,5716,21.63,74360.8,18.91,-2.67,-4.05,0,*7B
1500793370.4,5717,21.63,74360.0,18.91,-2.99,-4.41,0,*7B
1500793371.62,5718,21.63,74362.5,18.91,-3.27,-4.65,0,*76
1500793372.89,5719,21.63,74360.8,18.91,-3.51,-5.03,0,*77
1500793374.1,5720,21.63,74360.5,18.91,-2.91,-4.41,0,*77
1500793375.33,5721,21.63,74360.5,18.91,-4.69,-6.01,0,*71
1500793376.55,5722,21.63,74360.5,18.91,-3.87,-5.35,0,*71
1500793377.78,5723,21.63,74362.0,18.89,-3.55,-4.93,0,*7B
1500793379.03,5724,21.63,74360.3,18.93,-3.47,-4.85,0,*73
1500793380.22,5725,21.63,74360.8,18.93,-2.95,-4.37,0,*75
1500793381.46,5726,21.63,74362.5,18.95,-2.67,-3.95,0,*72
1500793382.67,5727,21.63,74360.0,18.95,-2.91,-4.25,0,*76
1500793383.88,5728,21.63,74356.8,18.95,-3.27,-4.49,0,*7F
1500793385.08,5729,21.63,74360.0,18.93,-3.31,-4.53,0,*74
1500793386.27,5730,21.63,74360.8,18.97,-3.27,-4.45,0,*78
1500793387.46,5731,21.63,74362.3,18.97,-3.27,-4.49,0,*75
1500793388.65,5732,21.63,74362.3,18.97,-3.19,-4.37,0,*72
1500793389.84,5733,21.63,74362.3,18.97,-3.27,-4.45,0,*7B
1500793391.07,5734,21.63,74360.0,18.97,-3.83,-5.03,0,*71
1500793392.29,5735,21.63,74360.8,18.97,-4.05,-5.23,0,*7B
1500793393.51,5736,21.63,74362.8,18.95,-3.31,-4.57,0,*78
1500793394.72,5737,21.63,74360.5,18.99,-2.91,-4.05,0,*79
1500793395.97,5738,21.63,74362.8,18.99,-2.47,-3.51,0,*7B
1500793397.22,5739,21.63,74360.3,19.01,-2.11,-3.03,0,*7E
1500793398.48,5740,21.63,74362.3,19.01,-2.55,-3.43,0,*74
1500793399.7,5741,21.63,74362.0,19.01,-3.15,-3.91,0,*7F
1500793400.91,5742,21.63,74362.3,19.01,-2.15,-2.79,0,*7A
1500793402.14,5743,21.63,74360.5,19.01,-2.67,-3.11,0,*71
1500793403.39,5744,21.63,74362.0,19.01,-2.47,-2.99,0,*75
1500793404.6,5745,21.63,74362.3,19.01,-2.39,-3.39,0,*76
1500793405.84,5746,21.63,74364.0,19.01,-2.03,-3.03,0,*75
1500793407.06,5747,21.63,74362.5,19.01,-1.29,-2.39,0,*77
1500793408.29,5748,21.63,74366.0,19.03,-0.89,-2.07,0,*4C
1500793409.49,5749,21.63,74360.0,19.03,-0.61,-1.95,0,*43
1500793410.72,5750,21.63,74360.5,19.07,-0.23,-1.91,0,*4D
1500793411.91,5751,21.63,74360.0,19.07,-0.77,-2.87,0,*49
1500793413.09,5752,21.63,74364.3,19.07,-2.15,-4.45,0,*74
1500793414.27,5753,21.63,74362.5,19.07,-1.79,-4.13,0,*7F
1500793415.47,5754,21.63,74362.5,19.07,-1.17,-3.35,0,*73
1500793416.7,5755,21.63,74362.3,19.09,-1.13,-3.15,0,*7A
1500793417.91,5756,21.63,74362.0,19.07,-1.29,-3.43,0,*7D
1500793419.12,5757,21.63,74364.0,19.07,-1.33,-3.55,0,*70
1500793420.34,5758,21.63,74362.0,19.11,-2.03,-4.21,0,*7C
1500793421.57,5759,21.63,74364.0,19.09,-2.03,-4.45,0,*76
1500793422.81,5760,21.63,74364.3,19.07,-2.03,-4.69,0,*7C
1500793424.0,5761,21.63,74366.3,19.07,-3.95,-6.69,0,*71
1500793425.22,5762,21.63,74366.5,19.07,-3.43,-6.43,0,*71
1500793426.46,5763,21.63,74366.3,19.01,-2.55,-5.47,0,*77
1500793427.7,5764,21.63,74364.0,19.03,-2.71,-5.65,0,*74
1500793428.9,5765,21.63,74366.0,19.03,-2.83,-5.65,0,*78
1500793430.09,5766,21.63,74364.0,19.03,-3.19,-5.97,0,*74
1500793431.33,5767,21.63,74364.3,19.03,-3.59,-6.63,0,*79
1500793432.52,5768,21.63,74360.8,19.03,-4.13,-6.89,0,*7B
1500793433.73,5769,21.63,74364.8,19.03,-4.61,-7.39,0,*75
1500793434.99,5770,21.63,74360.3,19.01,-4.69,-7.43,0,*7A
1500793436.24,5771,21.63,74364.5,19.01,-4.57,-7.27,0,*74
1500793437.44,5772,21.63,74360.5,18.97,-4.21,-6.81,0,*75
1500793438.64,5773,21.63,74364.3,18.97,-4.21,-6.81,0,*74
1500793439.86,5774,21.63,74366.3,18.97,-3.83,-6.27,0,*70
1500793441.07,5775,21.63,74364.3,18.97,-3.55,-6.01,0,*7E
1500793442.31,5776,21.63,74362.8,18.99,-3.87,-6.27,0,*78
1500793443.5,5777,21.63,74364.0,18.97,-4.09,-6.51,0,*77
1500793444.71,5778,21.63,74364.3,18.97,-4.69,-7.11,0,*7B
1500793445.95,5779,21.69,74366.0,18.97,-5.61,-7.91,0,*7B
1500793447.16,5780,21.63,74364.0,18.95,-6.43,-8.85,0,*76
1500793448.42,5781,21.63,74364.8,18.95,-5.77,-8.03,0,*7D
1500793449.63,5782,21.63,74364.0,18.91,-6.01,-8.25,0,*7C
1500793450.82,5783,21.63,74364.8,18.89,-6.39,-8.41,0,*7D
1500793452.06,5784,21.63,74366.5,18.87,-5.35,-7.43,0,*76
1500793453.31,5785,21.69,74368.3,18.87,-5.35,-7.35,0,*76
1500793454.55,5786,21.63,74364.0,18.87,-5.65,-7.49,0,*7B
1500793455.76,5787,21.63,74364.0,18.85,-5.43,-7.39,0,*7B
1500793457.01,5788,21.63,74362.5,18.85,-5.65,-7.61,0,*7D
1500793458.26,5789,21.63,74364.0,18.85,-5.77,-7.61,0,*7F
1500793459.49,5790,21.63,74364.8,18.81,-5.31,-7.05,0,*73
1500793460.73,5791,21.63,74364.3,18.81,-5.31,-7.01,0,*76
1500793461.97,5792,21.63,74364.8,18.79,-4.81,-6.59,0,*74
1500793463.18,5793,21.63,74366.5,18.81,-4.81,-6.47,0,*7D
1500793464.39,5794,21.63,74364.5,18.85,-5.11,-6.73,0,*71
1500793465.61,5795,21.69,74366.0,18.81,-5.35,-6.93,0,*7C
1500793466.82,5796,21.69,74368.0,18.81,-5.15,-6.73,0,*73
1500793468.06,5797,21.63,74364.8,18.81,-5.81,-7.31,0,*78
1500793469.27,5798,21.69,74368.3,18.81,-5.43,-7.01,0,*7A
1500793470.49,5799,21.63,74360.0,18.85,-5.31,-6.73,0,*7E
1500793471.71,5800,21.63,74362.3,18.85,-5.77,-7.15,0,*72
1500793472.93,5801,21.63,74366.0,18.81,-6.39,-7.73,0,*7E
1500793474.16,5802,21.63,74364.8,18.79,-6.47,-7.95,0,*7B
1500793475.41,5803,21.69,74364.3,18.79,-6.77,-7.99,0,*75
1500793476.65,5804,21.63,74364.0,18.79,-6.73,-7.99,0,*76
1500793477.89,5805,21.63,74360.0,18.77,-7.77,-9.11,0,*72
1500793479.15,5806,21.63,74362.8,18.75,-8.07,-9.41,0,*7E
1500793480.36,5807,21.63,74362.8,18.75,-7.15,-8.41,0,*72
1500793481.61,5808,21.63,74360.3,18.75,-5.65,-6.59,0,*7F
1500793482.8,5809,21.63,74360.5,18.73,-5.51,-6.81,0,*7A
1500793484.07,5810,21.63,74362.3,18.75,-5.69,-6.93,0,*7C
1500793485.28,5811,21.63,74362.8,18.77,-6.39,-7.57,0,*70
1500793486.55,5812,21.69,74366.3,18.75,-5.03,-6.19,0,*70
1500793487.82,5813,21.63,74360.5,18.75,-5.93,-6.97,0,*7E
1500793489.06,5814,21.63,74362.3,18.77,-5.11,-6.19,0,*77
1500793490.25,5815,21.69,74364.3,18.77,-5.35,-6.43,0,*7F
1500793491.49,5816,21.63,74362.8,18.79,-6.39,-7.39,0,*71
1500793492.73,5817,21.63,74360.5,18.79,-6.23,-7.19,0,*79
1500793493.95,5818,21.63,74364.8,18.79,-6.13,-7.19,0,*75
1500793495.16,5819,21.63,74362.8,18.77,-6.43,-7.57,0,*75
1500793496.43,5820,21.63,74362.8,18.75,-5.89,-6.97,0,*75
1500793497.64,5821,21.69,74366.0,18.79,-4.41,-5.43,0,*77
1500793498.88,5822,21.63,74362.3,18.79,-4.65,-5.69,0,*7A
1500793500.12,5823,21.63,74364.3,18.81,-4.89,-5.93,0,*7B
1500793501.34,5824,21.63,74364.0,18.81,-4.65,-5.61,0,*73
1500793502.58,5825,21.69,74366.0,18.85,-4.73,-5.77,0,*76
1500793503.79,5826,21.63,74360.0,18.85,-5.69,-6.69,0,*73
1500793505.03,5827,21.63,74362.8,18.85,-5.15,-6.23,0,*77
1500793506.25,5828,21.69,74364.0,18.87,-5.51,-6.55,0,*7B
1500793507.44,5829,21.63,74360.8,18.85,-5.43,-6.43,0,*7C
1500793508.66,5830,21.69,74364.5,18.87,-5.51,-6.43,0,*75
1500793509.9,5831,21.63,74362.8,18.87,-5.61,-6.55,0,*70
1500793511.12,5832,21.63,74360.8,18.87,-5.47,-6.31,0,*75
1500793512.34,5833,21.63,74360.5,18.87,-5.39,-6.31,0,*7D
1500793513.58,5834,21.69,74366.3,18.91,-5.69,-6.73,0,*7E
1500793514.77,5835,21.69,74362.0,18.89,-5.35,-6.51,0,*7F
1500793515.99,5836,21.69,74360.8,18.89,-5.73,-6.81,0,*73
1500793517.22,5837,21.69,74362.3,18.91,-5.19,-6.13,0,*7C
1500793518.46,5838,21.63,74362.8,18.89,-5.93,-7.05,0,*7E
1500793519.68,5839,21.63,74360.5,18.89,-5.89,-6.81,0,*79
1500793520.94,5840,21.69,74364.0,18.91,-4.81,-5.89,0,*7C
1500793522.18,5841,21.63,74360.3,18.91,-5.03,-6.01,0,*75
1500793523.4,5842,21.63,74360.8,18.93,-4.13,-5.27,0,*73
1500793524.64,5843,21.69,74362.3,18.95,-4.05,-5.11,0,*76
1500793525.88,5844,21.63,74358.3,18.95,-4.17,-5.11,0,*72
1500793527.12,5845,21.63,74362.3,18.95,-5.27,-6.39,0,*78
1500793528.36,5846,21.63,74362.0,18.97,-5.15,-6.19,0,*7A
1500793529.58,5847,21.63,74360.8,18.97,-5.03,-6.01,0,*75
1500793530.81,5848,21.63,74362.3,18.99,-5.07,-6.01,0,*70
1500793532.04,5849,21.69,74362.0,18.99,-5.31,-6.39,0,*7F
1500793533.3,5850,21.69,74362.8,18.99,-5.61,-6.63,0,*7D
1500793534.51,5851,21.69,74366.8,18.97,-5.11,-6.05,0,*75
1500793535.72,5852,21.69,74362.5,18.97,-4.49,-5.61,0,*7B
1500793536.93,5853,21.69,74360.5,18.99,-5.43,-6.51,0,*7F
1500793538.15,5854,21.63,74362.8,18.99,-4.93,-5.97,0,*7D
1500793539.38,5855,21.69,74364.5,18.99,-5.11,-6.13,0,*78
1500793540.62,5856,21.63,74362.5,18.99,-5.07,-6.01,0,*7F
1500793541.83,5857,21.63,74364.0,19.01,-4.45,-5.55,0,*7B
1500793543.05,5858,21.63,74360.5,19.03,-4.13,-5.19,0,*7D
1500793544.27,5859,21.69,74364.3,19.03,-4.17,-5.19,0,*78
1500793545.48,5860,21.63,74360.8,19.07,-4.61,-5.69,0,*70
1500793546.72,5861,21.69,74364.8,19.09,-4.09,-5.19,0,*76
1500793547.94,5862,21.63,74362.8,19.07,-4.05,-5.23,0,*7E
1500793549.16,5863,21.63,74362.8,19.11,-4.09,-5.19,0,*7D
1500793550.34,5864,21.69,74364.0,19.11,-4.45,-5.55,0,*7A
1500793551.53,5865,21.69,74364.5,19.11,-4.41,-5.55,0,*7F
1500793552.76,5866,21.69,74362.3,19.13,-4.93,-6.05,0,*77
1500793554.02,5867,21.63,74362.0,19.13,-4.77,-5.85,0,*77
1500793555.22,5868,21.69,74366.3,19.15,-5.69,-6.85,0,*73
1500793556.46,5869,21.69,74364.3,19.11,-5.85,-7.01,0,*79
1500793557.68,5870,21.69,74362.8,19.11,-6.81,-7.99,0,*77
1500793558.85,5871,21.69,74366.0,19.11,-7.49,-8.67,0,*7D
1500793560.06,5872,21.63,74360.5,19.07,-6.73,-7.91,0,*77
1500793561.28,5873,21.63,74360.5,19.07,-6.43,-7.65,0,*7E
1500793562.47,5874,21.63,74362.5,19.07,-6.01,-7.19,0,*74
1500793563.66,5875,21.63,74364.0,19.07,-4.13,-5.39,0,*74
1500793564.88,5876,21.63,74362.5,19.07,-4.13,-5.23,0,*7C
1500793566.14,5877,21.63,74360.3,19.09,-5.61,-6.93,0,*7F
1500793567.35,5878,21.63,74360.0,19.07,-5.65,-6.69,0,*7F
1500793568.6,5879,21.69,74362.0,19.09,-4.77,-5.89,0,*7F
1500793569.84,5880,21.63,74362.0,19.09,-4.05,-5.19,0,*75
1500793571.09,5881,21.69,74362.3,19.13,-3.95,-5.07,0,*7E
1500793572.34,5882,21.69,74360.8,19.11,-4.01,-5.07,0,*75
1500793573.59,5883,21.69,74362.3,19.13,-3.87,-5.03,0,*7B
1500793574.84,5884,21.69,74360.0,19.17,-3.79,-4.89,0,*7A
1500793576.07,5885,21.69,74362.3,19.17,-4.49,-5.65,0,*7C
1500793577.28,5886,21.69,74362.8,19.17,-5.35,-6.43,0,*72
1500793578.52,5887,21.69,74360.5,19.17,-5.77,-6.81,0,*7B
1500793579.76,5888,21.69,74360.3,19.17,-5.15,-6.05,0,*7C
1500793580.96,5889,21.63,74362.0,19.17,-4.99,-6.05,0,*78
1500793582.16,5890,21.63,74358.8,19.17,-4.99,-6.13,0,*77
1500793583.4,5891,21.69,74360.5,19.17,-5.65,-6.73,0,*72
1500793584.61,5892,21.69,74364.5,19.15,-6.55,-7.77,0,*76
1500793585.82,5893,21.69,74362.8,19.13,-6.35,-7.53,0,*71
1500793587.07,5894,21.69,74360.0,19.11,-6.93,-8.07,0,*76
1500793588.28,5895,21.69,74360.8,19.11,-6.77,-7.99,0,*75
1500793589.51,5896,21.69,74362.0,19.09,-6.69,-7.99,0,*70
1500793590.73,5897,21.69,74362.5,19.07,-6.59,-7.91,0,*74
1500793591.94,5898,21.63,74356.5,19.07,-6.39,-7.73,0,*71
1500793593.13,5899,21.69,74360.3,19.07,-6.39,-7.87,0,*7B
1500793594.32,5900,21.63,74358.8,19.03,-6.47,-7.83,0,*73
1500793595.56,5901,21.69,74362.8,19.01,-6.35,-7.95,0,*72
1500793596.8,5902,21.69,74364.5,19.01,-6.13,-7.73,0,*7D
1500793598.02,5903,21.69,74364.3,19.01,-5.47,-7.15,0,*7E
1500793599.26,5904,21.69,74362.0,18.99,-5.11,-6.81,0,*76
1500793600.47,5905,21.69,74362.3,18.97,-5.61,-7.49,0,*7B
1500793601.71,5906,21.69,74362.8,18.99,-5.11,-7.05,0,*79
1500793602.9,5907,21.63,74362.8,18.97,-4.37,-6.43,0,*70
1500793604.09,5908,21.69,74364.0,18.97,-4.57,-6.73,0,*7A
1500793605.28,5909,21.69,74366.3,18.97,-4.61,-6.73,0,*7E
1500793606.49,5910,21.69,74362.5,18.95,-4.25,-6.69,0,*7F
1500793607.73,5911,21.63,74362.3,18.95,-4.61,-6.93,0,*7B
1500793608.94,5912,21.63,74360.5,18.95,-4.17,-6.43,0,*74
1500793610.15,5913,21.63,74360.5,18.93,-3.63,-6.05,0,*75
1500793611.39,5914,21.69,74366.0,18.95,-3.59,-6.05,0,*7D
1500793612.63,5915,21.69,74364.8,18.95,-3.59,-6.01,0,*78
1500793613.86,5916,21.69,74362.8,18.95,-3.19,-5.73,0,*79
1500793615.06,5917,21.69,74366.3,18.97,-3.91,-6.39,0,*77
1500793616.25,5918,21.69,74364.8,18.97,-3.91,-6.39,0,*78
1500793617.45,5919,21.69,74366.5,18.97,-3.91,-6.51,0,*77
1500793618.68,5920,21.69,74364.3,18.95,-3.91,-6.51,0,*7F
1500793619.89,5921,21.69,74366.3,18.95,-4.25,-6.85,0,*7F
1500793621.11,5922,21.69,74366.5,18.95,-4.37,-7.11,0,*73
1500793622.31,5923,21.69,74366.3,18.93,-4.99,-7.77,0,*70
1500793623.57,5924,21.69,74366.5,18.91,-5.11,-7.95,0,*78
1500793624.81,5925,21.63,74362.0,18.91,-4.89,-7.87,0,*7A
1500793626.03,5926,21.69,74364.8,18.89,-4.57,-7.31,0,*7E
1500793627.24,5927,21.69,74366.0,18.89,-4.61,-7.43,0,*7F
1500793628.48,5928,21.69,74360.5,18.85,-4.77,-7.65,0,*7F
1500793629.68,5929,21.69,74360.8,18.85,-4.77,-7.53,0,*7B
1500793630.9,5930,21.69,74364.8,18.85,-4.53,-7.27,0,*76
1500793632.12,5931,21.69,74366.5,18.85,-4.41,-7.27,0,*74
1500793633.39,5932,21.69,74360.5,18.79,-5.19,-8.07,0,*75
1500793634.66,5933,21.63,74362.3,18.79,-5.07,-7.99,0,*73
1500793635.89,5934,21.63,74360.5,18.75,-5.23,-8.17,0,*77
1500793637.12,5935,21.63,74362.3,18.77,-4.57,-7.43,0,*78
1500793638.36,5936,21.69,74366.5,18.75,-4.25,-7.01,0,*7A
1500793639.6,5937,21.69,74364.8,18.75,-3.63,-6.43,0,*79
1500793640.79,5938,21.69,74366.5,18.73,-3.87,-6.73,0,*79
1500793642.01,5939,21.69,74366.5,18.75,-3.83,-6.59,0,*72
1500793643.25,5940,21.69,74366.5,18.71,-4.13,-7.01,0,*7A
1500793644.45,5941,21.69,74364.0,18.73,-4.21,-6.85,0,*75
1500793645.67,5942,21.69,74364.5,18.73,-4.21,-6.93,0,*71
1500793646.91,5943,21.69,74364.0,18.71,-4.53,-7.27,0,*79
1500793648.14,5944,21.69,74364.5,18.71,-4.65,-7.31,0,*7C
1500793649.39,5945,21.69,74364.5,18.71,-4.01,-6.73,0,*78
1500793650.6,5946,21.63,74360.0,18.71,-4.25,-6.89,0,*78
1500793651.84,5947,21.69,74364.0,18.71,-5.47,-7.99,0,*7C
1500793653.03,5948,21.69,74360.8,18.67,-5.51,-8.17,0,*7A
1500793654.24,5949,21.69,74364.3,18.67,-5.23,-7.83,0,*7C
1500793655.45,5950,21.69,74364.5,18.67,-4.73,-7.23,0,*7A
1500793656.66,5951,21.69,74364.8,18.63,-5.43,-8.07,0,*74
1500793657.9,5952,21.63,74360.3,18.63,-5.65,-8.07,0,*73
1500793659.14,5953,21.69,74360.8,18.59,-5.03,-7.27,0,*76
1500793660.35,5954,21.69,74362.8,18.57,-4.41,-6.77,0,*7C
1500793661.54,5955,21.69,74364.8,18.59,-4.17,-6.47,0,*73
1500793662.76,5956,21.69,74360.3,18.57,-3.95,-6.31,0,*72
1500793664.0,5957,21.69,74362.5,18.59,-5.15,-7.43,0,*77
1500793665.27,5958,21.69,74364.8,18.57,-5.07,-7.35,0,*74
1500793666.49,5959,21.69,74364.3,18.57,-4.33,-6.51,0,*70
1500793667.67,5960,21.69,74366.8,18.59,-4.29,-6.39,0,*71
1500793668.88,5961,21.63,74362.3,18.59,-4.17,-6.27,0,*72
1500793670.09,5962,21.69,74366.3,18.59,-4.41,-6.63,0,*72
1500793671.31,5963,21.69,74364.5,18.57,-4.21,-6.31,0,*7C
1500793672.5,5964,21.69,74364.0,18.59,-3.91,-5.97,0,*76
1500793673.7,5965,21.69,74366.5,18.59,-4.37,-6.27,0,*74
1500793674.91,5966,21.69,74366.0,18.59,-4.53,-6.63,0,*75
1500793676.16,5967,21.63,74362.8,18.57,-4.93,-7.05,0,*77
1500793677.37,5968,21.69,74364.5,18.57,-4.45,-6.51,0,*73
1500793678.57,5969,21.69,74366.8,18.59,-4.17,-6.23,0,*7E
1500793679.75,5970,21.69,74364.8,18.59,-4.13,-6.05,0,*76
1500793680.93,5971,21.69,74364.8,18.59,-4.37,-6.39,0,*7E
1500793682.14,5972,21.69,74362.3,18.57,-4.99,-6.89,0,*7C
1500793683.32,5973,21.69,74364.3,18.63,-4.45,-6.31,0,*78
1500793684.52,5974,21.69,74362.5,18.59,-4.89,-6.85,0,*79
1500793685.74,5975,21.69,74364.5,18.59,-5.19,-7.11,0,*7C
1500793686.95,5976,21.69,74364.0,18.59,-5.07,-6.89,0,*70
1500793688.15,5977,21.69,74364.3,18.59,-4.69,-6.51,0,*7D
1500793689.36,5978,21.69,74364.5,18.59,-4.89,-6.73,0,*7C
1500793690.59,5979,21.69,74364.5,18.57,-4.85,-6.69,0,*74
1500793691.8,5980,21.69,74364.5,18.59,-4.17,-5.93,0,*71
1500793693.0,5981,21.69,74362.3,18.59,-4.49,-6.27,0,*77
1500793694.22,5982,21.69,74364.8,18.59,-3.79,-5.61,0,*71
1500793695.45,5983,21.69,74364.5,18.59,-3.79,-5.61,0,*70
1500793696.63,5984,21.69,74360.3,18.59,-4.29,-6.05,0,*74
1500793697.84,5985,21.69,74364.5,18.63,-3.87,-5.69,0,*76
1500793699.08,5986,21.69,74364.0,18.63,-3.55,-5.27,0,*70
1500793700.29,5987,21.69,74366.5,18.63,-2.95,-4.73,0,*7C
1500793701.5,5988,21.69,74366.5,18.67,-3.03,-4.69,0,*72
1500793702.72,5989,21.69,74362.3,18.67,-5.11,-6.81,0,*72
1500793703.92,5990,21.69,74362.0,18.67,-4.53,-6.27,0,*71
1500793705.14,5991,21.69,74364.8,18.67,-3.91,-5.61,0,*78
1500793706.36,5992,21.69,74364.0,18.67,-4.21,-5.77,0,*70
1500793707.55,5993,21.69,74364.5,18.67,-3.79,-5.35,0,*7D
1500793708.74,5994,21.69,74362.0,18.69,-4.09,-5.47,0,*71
1500793709.98,5995,21.69,74364.8,18.67,-3.51,-5.07,0,*70
1500793711.2,5996,21.69,74366.8,18.69,-3.39,-4.85,0,*78
1500793712.45,5997,21.69,74362.0,18.69,-3.43,-4.85,0,*74
1500793713.63,5998,21.69,74364.0,18.67,-3.19,-4.53,0,*71